Temperature
14 12 12 12 13 14 14 13 13 13 14 14 13 12 14 14 13 13 14 15 15 16 16 15 15 15 15 15 14 14 13 13 12 11 11 11 10 10 10 10 9 9 9 9
12 12 13 13 13 13 13 13 13 12 13 13 12 12 13 12 12 14 14 15 16 15 15 15 15 14 14 14 14 13 13 12 12 11 11 11 10 10 10 9 9 9 9 9
12 13 13 13 13 13 12 12 13 13 13 13 12 12 12 12 13 13 14 15 15 15 15 15 14 14 14 14 13 13 13 12 12 11 11 11 10 10 10 9 9 9 9 8
12 13 13 13 13 12 12 13 13 13 12 11 12 11 12 12 12 11 12 12 14 14 15 15 14 14 14 13 13 13 12 12 12 11 11 11 11 10 10 10 9 9 9 8
11 12 13 13 13 12 13 13 13 13 12 11 11 11 12 12 12 12 11 12 13 14 14 14 14 14 13 13 12 12 12 12 12 11 11 11 11 10 10 9 9 9 8 8
12 12 13 13 13 13 13 12 11 9 10 10 10 10 11 11 13 13 12 12 12 13 13 13 13 13 13 12 12 12 12 12 11 11 11 11 11 10 10 9 9 8 8 8
12 13 13 13 13 13 13 12 11 11 10 10 10 10 11 12 12 12 12 13 12 12 13 13 13 12 12 12 12 12 12 12 11 11 11 11 10 10 9 9 8 8 8 7
10 11 12 12 13 12 11 12 11 11 10 10 10 9 11 12 12 13 13 13 12 12 12 13 13 13 13 12 12 12 12 11 11 11 11 10 10 10 9 9 8 8 7 7
11 11 12 12 13 12 11 11 11 10 10 10 10 10 11 13 13 12 12 11 11 12 12 13 13 12 12 12 12 12 12 11 11 11 10 10 10 9 9 8 8 7 7 6
11 11 12 12 12 12 11 10 9 10 10 10 10 10 12 14 14 12 11 10 11 12 12 12 12 12 12 12 12 11 11 11 11 10 10 10 9 9 8 8 7 7 6 6
11 11 11 11 11 11 10 10 10 9 9 10 10 11 12 12 13 11 11 12 12 13 13 13 13 13 12 12 11 11 11 10 10 10 9 9 9 8 8 7 7 6 6 5
10 10 10 10 11 11 11 10 10 10 9 8 9 11 13 12 11 11 12 13 14 14 13 13 13 12 12 12 11 11 11 10 10 9 9 8 8 8 7 7 6 6 5 5
11 10 10 11 11 10 11 10 10 10 9 7 8 11 12 12 13 13 14 14 15 14 14 13 13 12 12 12 11 11 10 10 9 9 8 8 8 7 7 6 6 5 5 5
11 9 10 11 11 10 10 10 10 10 9 8 8 11 12 13 13 13 15 15 15 15 14 13 13 13 12 12 11 11 10 10 9 9 8 8 7 7 6 6 5 5 4 4
10 10 10 11 11 10 10 11 10 10 10 10 10 10 13 13 13 14 15 15 15 15 14 14 14 13 12 11 11 10 10 9 9 8 8 7 7 6 6 5 5 4 4 4
9 10 9 11 11 10 11 10 10 10 10 10 10 11 12 13 13 13 14 14 14 15 15 14 14 13 12 12 11 10 10 9 8 8 7 7 6 6 5 5 4 4 4 3
8 9 9 9 11 10 10 10 10 9 9 10 11 12 13 12 11 12 14 14 15 15 15 14 14 13 12 12 11 10 9 9 8 7 7 6 6 5 5 4 4 4 3 3
9 9 8 8 10 9 11 11 11 11 10 10 10 11 12 11 13 14 14 14 15 15 14 14 13 13 12 11 10 9 9 8 7 7 6 6 5 5 4 4 4 3 2 2
9 9 7 7 8 8 10 10 10 10 10 10 10 11 11 11 11 12 14 14 14 14 14 13 13 12 11 10 9 9 8 7 7 6 6 5 5 4 4 3 3 2 2 1
7 8 7 6 8 9 11 12 11 11 11 11 10 10 9 9 10 11 14 14 14 13 13 12 12 11 10 9 8 8 7 7 6 6 5 5 4 4 3 3 2 2 1 1
7 7 7 7 8 8 10 10 11 11 12 13 12 11 10 9 11 13 13 13 13 12 12 11 10 10 9 8 7 7 6 6 6 5 5 4 4 3 3 2 2 1 1 0
8 7 6 6 7 8 10 9 10 11 13 13 13 13 12 12 12 12 12 12 12 11 11 10 9 9 8 7 7 6 6 5 5 4 4 4 3 2 2 1 1 1 0 -0
8 9 8 8 10 10 11 12 13 13 13 14 14 14 14 13 12 12 12 11 11 10 10 9 8 7 7 6 6 5 5 4 4 4 3 3 2 2 1 1 0 -0 -1 -1
6 7 6 7 7 8 11 12 13 13 14 14 14 14 14 13 13 12 11 10 10 9 9 8 7 6 6 5 5 5 4 4 3 3 3 2 2 1 1 0 -0 -1 -1 -2
7 5 6 7 7 8 10 12 14 14 13 13 13 13 13 12 12 11 10 10 9 8 7 7 6 6 5 5 4 4 3 3 3 2 2 1 1 0 0 -0 -1 -2 -2 -3
5 6 7 8 8 9 11 14 14 14 13 13 13 12 12 12 11 11 10 9 8 7 7 6 5 5 4 4 4 3 3 2 2 2 1 1 0 -0 -1 -1 -2 -2 -3 -3
Wind_Speed
4 4 7 10 10 7 5 5 7 8 5 4 10 14 17 11 9 11 11 11 11 10 4 2 2 4 6 6 8 9 10 9 8 5 5 5 4 3 3 5 6 6 5 5
4 7 10 7 5 4 4 5 7 8 5 5 8 13 14 11 10 12 13 14 13 9 6 5 4 4 5 7 8 8 9 9 8 6 4 4 4 4 3 4 6 7 6 5
12 7 6 7 6 6 6 7 8 8 7 5 6 10 9 8 6 8 9 10 11 13 12 9 7 6 6 7 8 9 9 9 8 8 6 5 5 4 3 3 2 4 6 6
9 6 5 6 8 9 8 9 9 6 4 6 2 7 10 8 9 9 10 10 12 11 10 9 9 8 7 6 6 8 8 8 8 8 8 7 5 4 3 2 2 3 6 6
9 8 8 9 10 11 9 3 4 3 4 5 3 5 10 7 9 11 10 11 12 12 12 12 10 9 7 7 7 7 8 8 7 7 8 8 6 4 3 3 3 3 4 5
6 5 8 9 6 8 6 6 5 5 3 4 6 7 9 7 9 9 6 8 11 11 11 10 8 8 7 6 7 8 9 7 7 8 8 9 9 7 6 4 3 2 2 2
5 4 4 5 6 4 6 5 2 4 2 7 4 5 11 12 9 9 10 9 10 11 12 11 11 11 10 9 9 8 10 8 7 8 7 8 9 8 7 5 4 3 1 1
10 7 9 8 8 9 8 10 8 6 5 5 3 7 10 11 9 8 8 7 9 11 12 13 13 12 11 11 10 10 10 8 8 8 7 7 7 6 5 5 4 3 2 2
12 9 4 7 6 12 8 7 7 5 2 4 7 8 11 8 6 5 3 3 9 12 12 12 12 11 11 12 11 11 11 9 9 8 8 7 7 6 6 5 4 3 2 2
10 6 4 4 5 2 8 10 6 6 5 6 7 6 6 10 9 7 5 6 8 9 10 11 11 12 11 10 9 9 10 10 8 8 8 6 6 6 6 5 4 4 3 2
8 7 3 4 9 11 7 6 6 6 5 6 5 7 7 8 8 9 9 7 8 11 12 12 11 11 10 9 9 9 9 9 8 8 7 7 6 6 5 5 4 4 3 3
8 7 5 8 5 7 8 10 9 7 7 6 4 8 8 7 8 8 8 7 7 9 10 10 10 10 10 11 10 10 10 9 9 8 8 7 6 6 5 4 4 4 3 3
10 8 5 0 1 3 5 7 9 6 5 6 6 8 5 5 6 5 6 6 6 8 9 9 10 11 12 12 12 11 11 10 9 8 8 7 7 6 6 5 4 4 4 4
10 7 9 12 8 9 7 8 9 8 7 8 10 11 11 10 9 8 7 6 6 7 9 10 11 12 12 12 12 11 10 10 9 9 9 8 7 7 6 5 4 4 4 4
8 8 8 7 7 8 9 11 13 13 13 12 11 13 16 13 11 9 8 6 6 7 9 12 12 12 11 11 11 11 10 10 10 10 9 8 6 5 5 4 4 4 4 5
8 8 8 6 7 8 7 10 12 14 12 12 11 13 14 11 7 8 9 8 9 10 10 11 11 11 13 13 12 11 11 10 10 10 9 7 6 5 5 5 4 4 5 5
9 9 8 6 4 3 9 11 12 9 9 11 15 17 12 7 9 10 10 9 11 10 9 10 11 12 12 12 12 12 11 9 9 9 7 7 6 5 5 4 4 5 6 5
11 10 6 5 5 9 10 7 11 11 11 13 11 10 10 10 8 7 7 8 9 8 8 8 8 9 8 8 9 9 9 10 9 8 6 6 5 5 4 4 5 6 5 6
7 9 6 6 6 8 8 6 8 10 11 12 14 13 8 2 1 5 7 7 7 6 6 6 6 7 7 9 10 10 9 8 8 7 6 6 5 5 5 5 6 6 5 6
4 6 7 6 6 8 9 6 6 6 7 9 11 12 7 7 3 6 2 4 3 4 4 6 7 7 8 8 10 10 9 8 7 6 6 5 5 5 6 7 6 5 5 7
6 5 6 6 7 8 8 3 9 6 9 5 8 9 10 10 7 2 4 4 4 5 6 7 8 8 8 9 10 9 8 7 6 4 4 4 4 5 6 5 5 5 6 7
11 8 8 7 6 9 7 9 10 10 4 3 5 7 9 8 4 4 4 5 6 6 7 8 8 7 7 8 9 8 6 5 4 4 3 3 4 4 4 5 6 6 6 8
9 11 9 11 10 6 8 10 8 5 5 6 6 7 8 7 6 6 5 6 6 7 7 7 9 8 6 6 7 7 5 4 4 3 3 4 4 4 4 5 6 6 6 7
5 3 6 5 8 7 7 6 5 7 7 6 6 7 9 8 8 8 7 6 6 6 7 7 9 9 6 5 5 5 4 4 3 3 3 4 4 5 5 5 5 6 6 7
8 8 6 6 6 4 7 9 9 7 6 5 5 6 8 9 8 8 8 8 7 6 6 7 8 8 6 5 4 3 3 3 3 3 4 4 5 6 6 6 6 7 7 9
7 9 10 9 9 9 9 8 9 9 9 9 8 6 5 8 8 8 8 7 8 8 7 7 6 6 5 4 3 3 3 3 3 4 5 4 5 5 5 7 8 12 14 18
Wind_Direction
130 130 192 202 196 192 184 210 252 260 265 253 255 264 271 264 231 234 229 223 223 226 217 173 137 121 118 124 136 145 146 146 142 137 134 130 123 108 89 80 81 84 87 93
109 222 215 190 178 185 200 243 266 281 274 232 270 274 269 256 234 226 221 218 213 208 195 181 164 147 140 140 140 141 146 148 149 143 133 125 124 110 94 83 73 70 78 85
189 215 184 165 174 188 214 217 241 261 310 311 308 296 284 279 249 246 229 215 204 198 193 184 174 165 150 150 151 149 146 144 138 130 116 101 90 82 78 68 60 48 69 79
214 222 155 171 196 181 236 226 225 250 285 289 334 296 287 277 283 260 238 215 204 196 185 181 177 171 167 161 148 139 139 137 136 138 140 139 138 140 142 128 98 61 65 71
218 190 178 197 205 179 211 210 190 231 226 283 276 251 282 294 278 268 243 220 208 195 185 183 180 173 163 154 147 139 133 130 133 136 139 132 124 127 124 111 98 75 56 64
217 201 191 202 200 175 147 85 63 50 79 275 235 213 279 258 246 273 266 223 204 190 182 175 165 155 152 149 145 142 136 132 135 133 135 137 137 139 135 130 121 98 69 55
219 228 205 158 122 120 130 117 360 326 312 251 238 220 253 257 254 256 267 241 201 184 176 172 170 171 168 165 161 154 146 143 143 139 139 143 145 148 150 152 152 146 128 98
184 229 202 185 168 166 177 161 177 216 237 280 269 240 257 267 277 275 266 234 187 182 182 182 182 178 175 173 168 162 157 152 153 149 147 145 146 146 151 155 157 162 170 186
181 219 221 191 171 149 153 192 175 150 208 266 270 277 298 287 289 302 300 200 190 188 186 186 182 180 178 178 177 171 164 158 160 158 150 149 151 152 155 155 156 165 182 192
151 192 221 155 104 87 156 149 125 155 204 246 271 268 254 286 297 305 281 236 212 192 188 187 186 185 184 181 174 169 167 165 163 161 160 158 159 160 158 157 168 180 191 193
142 155 157 148 180 176 138 151 156 161 177 186 252 266 232 249 276 282 274 244 213 198 195 193 190 185 178 172 171 173 171 164 164 166 161 156 161 160 159 169 183 189 198 209
150 144 186 221 221 185 173 174 157 173 214 199 210 265 269 260 276 268 269 250 217 204 197 191 183 176 177 180 180 179 176 174 173 167 162 164 163 162 170 186 198 199 214 226
150 147 148 286 324 167 195 192 187 170 160 180 198 258 286 294 293 271 265 257 223 202 191 184 182 187 189 187 185 183 181 178 169 163 163 166 171 176 188 199 207 211 222 241
147 150 181 196 198 177 191 201 187 173 195 214 222 246 277 284 285 284 273 256 226 208 195 191 194 196 192 189 186 184 183 175 167 165 168 176 185 189 196 204 212 222 229 243
146 178 193 199 184 168 190 197 191 200 208 215 231 235 250 255 254 262 264 250 222 217 207 202 200 196 189 186 184 182 179 173 168 168 176 187 187 187 194 208 222 232 240 248
151 171 175 208 206 195 216 218 205 214 221 230 247 258 253 254 247 252 253 241 234 230 219 209 200 192 190 188 185 179 177 173 167 172 181 180 180 188 203 218 228 241 253 260
159 146 156 208 202 179 243 216 203 205 206 200 227 243 251 245 240 240 244 236 234 233 220 207 201 197 192 186 179 179 173 162 164 172 176 179 183 197 215 224 234 248 257 262
157 153 152 157 143 221 239 216 202 208 223 211 221 238 237 233 241 243 232 229 234 226 213 203 193 187 178 167 162 156 152 157 163 169 177 182 188 206 222 233 245 253 255 259
153 148 140 153 200 259 285 245 188 197 244 223 223 239 240 214 315 281 234 216 223 215 198 185 171 160 152 153 150 144 147 153 161 174 185 192 196 210 226 241 251 255 258 263
98 128 140 151 183 227 238 228 169 142 257 242 208 225 207 146 192 262 230 181 178 153 144 140 132 128 139 144 141 142 150 158 176 186 193 196 199 212 230 243 254 257 257 264
132 134 157 166 204 247 243 179 126 167 237 240 196 201 175 185 205 201 125 120 127 122 122 127 128 133 141 141 139 143 153 176 184 177 183 198 213 225 237 248 255 265 270 275
165 165 175 163 194 241 211 149 181 212 210 183 183 184 183 193 160 145 144 137 133 126 125 128 128 125 129 138 140 145 166 174 162 166 189 219 234 243 249 253 267 269 270 277
189 184 179 189 209 221 181 195 210 180 189 197 189 188 172 174 183 173 164 155 148 142 138 133 132 128 128 138 142 152 168 157 155 173 215 239 252 255 253 254 265 272 268 272
231 164 156 210 246 238 224 230 224 201 204 202 188 173 168 178 179 173 165 159 153 147 143 138 136 138 143 147 145 156 160 158 164 207 239 251 258 266 263 258 257 262 267 272
189 165 173 218 252 275 258 227 219 207 201 187 172 174 179 173 172 172 169 167 162 152 146 146 148 150 156 154 155 161 163 159 190 231 249 256 256 260 267 264 256 263 253 259
180 172 178 211 209 196 224 222 198 191 199 191 173 168 171 174 173 166 168 165 159 154 148 146 147 151 158 158 166 177 179 178 202 242 253 255 259 263 266 275 283 273 273 282
Height
1507 1513 1517 1516 1515 1517 1519 1523 1524 1520 1513 1514 1513 1508 1499 1495 1496 1494 1493 1494 1495 1498 1501 1502 1504 1505 1507 1509 1511 1514 1518 1522 1525 1528 1531 1534 1536 1538 1539 1540 1540 1540 1540 1540
1510 1512 1507 1509 1513 1516 1518 1522 1523 1518 1512 1513 1511 1505 1495 1489 1488 1486 1485 1486 1489 1493 1496 1498 1500 1502 1505 1507 1510 1513 1516 1519 1523 1526 1529 1532 1534 1535 1536 1537 1537 1538 1537 1537
1505 1504 1503 1508 1512 1516 1518 1521 1519 1518 1513 1510 1511 1505 1493 1484 1481 1480 1479 1480 1483 1486 1490 1494 1497 1499 1502 1505 1508 1511 1514 1518 1521 1524 1527 1529 1531 1533 1534 1535 1535 1535 1535 1534
1502 1500 1501 1506 1509 1513 1517 1512 1513 1514 1518 1521 1515 1518 1496 1486 1481 1476 1474 1475 1476 1480 1485 1489 1493 1496 1499 1503 1506 1509 1513 1516 1519 1522 1524 1526 1528 1530 1531 1532 1533 1533 1532 1532
1498 1496 1498 1502 1503 1506 1508 1506 1511 1513 1516 1521 1517 1519 1499 1486 1481 1472 1468 1469 1471 1475 1480 1485 1489 1494 1497 1501 1504 1507 1511 1514 1517 1520 1522 1524 1526 1527 1529 1530 1530 1530 1530 1529
1491 1491 1492 1494 1495 1499 1503 1509 1514 1520 1522 1526 1516 1520 1504 1486 1475 1468 1465 1465 1467 1471 1476 1482 1487 1491 1495 1498 1502 1505 1508 1512 1515 1517 1520 1522 1524 1525 1526 1527 1527 1528 1527 1527
1492 1490 1489 1490 1496 1499 1503 1514 1525 1525 1528 1524 1512 1514 1499 1473 1468 1466 1464 1462 1464 1468 1472 1478 1482 1487 1491 1495 1499 1503 1506 1509 1512 1515 1517 1519 1521 1523 1524 1524 1525 1525 1524 1524
1495 1494 1487 1487 1490 1497 1501 1506 1520 1525 1526 1521 1511 1511 1487 1468 1464 1462 1460 1459 1461 1464 1469 1474 1479 1484 1488 1493 1497 1500 1504 1507 1510 1512 1515 1517 1518 1520 1521 1521 1522 1521 1521 1520
1485 1488 1480 1480 1482 1488 1499 1503 1502 1514 1517 1519 1511 1500 1482 1463 1461 1460 1459 1458 1458 1461 1466 1471 1476 1481 1485 1490 1494 1498 1501 1504 1507 1510 1512 1514 1515 1517 1518 1518 1518 1518 1517 1517
1473 1484 1479 1479 1482 1485 1488 1495 1507 1512 1519 1519 1509 1501 1488 1468 1462 1460 1458 1458 1458 1461 1464 1469 1474 1478 1483 1488 1492 1496 1499 1502 1505 1507 1509 1511 1513 1514 1514 1515 1515 1514 1514 1513
1466 1477 1482 1481 1482 1486 1491 1495 1497 1505 1510 1513 1512 1497 1472 1467 1462 1460 1457 1456 1457 1459 1462 1466 1470 1475 1480 1485 1489 1492 1496 1499 1501 1504 1506 1508 1509 1510 1511 1511 1511 1510 1510 1509
1461 1473 1482 1480 1476 1475 1479 1484 1491 1501 1505 1508 1507 1493 1462 1462 1459 1457 1455 1454 1455 1457 1460 1464 1468 1472 1476 1480 1484 1488 1492 1495 1498 1500 1502 1504 1506 1506 1507 1507 1507 1506 1505 1504
1456 1469 1481 1482 1482 1479 1478 1480 1481 1485 1494 1504 1505 1488 1461 1459 1457 1455 1454 1454 1454 1456 1458 1461 1465 1468 1471 1475 1480 1484 1487 1491 1494 1497 1499 1500 1501 1502 1503 1503 1502 1502 1501 1499
1446 1460 1466 1470 1469 1470 1475 1475 1477 1482 1489 1494 1490 1477 1464 1458 1456 1454 1453 1453 1453 1454 1455 1457 1460 1463 1466 1470 1475 1479 1483 1486 1490 1492 1494 1496 1497 1498 1498 1498 1498 1497 1496 1494
1444 1455 1457 1457 1457 1462 1463 1465 1470 1473 1473 1476 1472 1469 1459 1453 1452 1451 1450 1450 1450 1451 1451 1452 1454 1457 1461 1465 1469 1474 1478 1481 1485 1487 1490 1491 1493 1494 1494 1494 1493 1492 1490 1488
1442 1449 1455 1456 1456 1458 1460 1460 1463 1464 1464 1466 1464 1461 1448 1447 1447 1447 1446 1446 1446 1446 1447 1448 1450 1453 1456 1459 1463 1468 1472 1476 1480 1482 1485 1487 1488 1489 1489 1489 1488 1486 1485 1483
1441 1448 1456 1459 1455 1457 1461 1454 1455 1457 1456 1456 1457 1448 1441 1443 1443 1441 1441 1441 1441 1442 1443 1444 1446 1448 1451 1455 1459 1463 1467 1471 1475 1478 1480 1482 1483 1483 1484 1483 1482 1480 1478 1476
1435 1443 1451 1457 1459 1464 1446 1437 1439 1443 1443 1443 1441 1438 1436 1437 1436 1437 1437 1437 1437 1438 1439 1441 1443 1445 1448 1452 1455 1459 1463 1467 1470 1473 1475 1477 1478 1478 1478 1477 1476 1474 1472 1470
1426 1436 1450 1458 1458 1452 1443 1435 1435 1439 1438 1432 1434 1432 1432 1433 1435 1433 1432 1433 1434 1435 1437 1438 1440 1443 1446 1449 1452 1456 1460 1463 1466 1469 1471 1472 1473 1473 1472 1471 1470 1468 1465 1463
1428 1430 1443 1453 1453 1451 1435 1425 1425 1432 1435 1424 1425 1426 1428 1432 1437 1432 1429 1430 1431 1433 1435 1436 1438 1441 1444 1447 1450 1454 1457 1460 1463 1465 1467 1468 1468 1467 1466 1465 1463 1461 1458 1455
1432 1435 1440 1446 1445 1440 1426 1423 1426 1438 1429 1417 1418 1419 1423 1426 1427 1427 1427 1429 1430 1432 1433 1435 1437 1440 1443 1446 1449 1452 1455 1458 1460 1462 1462 1463 1463 1462 1461 1459 1457 1454 1451 1448
1420 1431 1438 1441 1443 1437 1417 1421 1423 1418 1414 1414 1415 1417 1419 1421 1423 1425 1426 1427 1429 1430 1432 1434 1436 1439 1442 1445 1448 1450 1453 1455 1457 1457 1458 1458 1457 1456 1455 1452 1450 1448 1444 1440
1411 1410 1415 1418 1417 1410 1408 1409 1409 1410 1411 1412 1413 1415 1417 1419 1421 1423 1424 1426 1428 1429 1431 1433 1435 1438 1441 1444 1446 1448 1450 1452 1452 1453 1453 1452 1451 1450 1448 1446 1443 1440 1437 1432
1406 1405 1410 1412 1408 1404 1404 1405 1406 1407 1408 1410 1412 1413 1415 1416 1418 1420 1422 1424 1426 1428 1430 1432 1434 1437 1439 1442 1444 1446 1447 1448 1448 1448 1448 1447 1445 1443 1442 1439 1436 1432 1429 1424
1395 1402 1405 1406 1402 1401 1400 1400 1401 1403 1405 1407 1409 1411 1412 1414 1416 1418 1420 1422 1424 1426 1428 1431 1433 1435 1438 1440 1441 1443 1443 1443 1443 1443 1442 1440 1439 1436 1434 1431 1428 1424 1421 1418
1390 1393 1397 1397 1393 1395 1393 1394 1397 1399 1400 1403 1405 1407 1409 1411 1413 1415 1417 1419 1421 1424 1426 1429 1431 1433 1435 1437 1438 1439 1439 1439 1438 1437 1435 1434 1431 1429 1426 1422 1419 1416 1413 1409